Hourly Data Report for September 15, 2017

All times are specified in Local Standard Time (LST). Add 1 hour to adjust for Daylight Saving Time where and when it is observed.

KUGLUKTUK A
NUNAVUT

67°49'00.000" N
115°08'38.000" W
22.60 m
2300903
71938
YCO

Download Data

Hourly Data (September 2017)
Hourly Data Report for September 15, 2017
Temp Definition
°C
Dew Point Temp Definition
°C
Rel Hum Definition
%
Wind Dir Definition
10's deg

Wind Spd Definition
km/h
Visibility Definition
km
Stn Press Definition
kPa
Hmdx Definition


Wind Chill Definition


Weather Definition


TIME
00:00 Legend Double Dagger 9.2 6.1 81 25 26 24.1 100.81     LegendNANA
01:00 Legend Double Dagger 8.5 6.1 85 25 21 24.1 100.87     LegendNANA
02:00 Legend Double Dagger 5.8 4.8 93 23 19 24.1 100.93     Mainly Clear
03:00 Legend Double Dagger 6.4 5.2 92 24 20 24.1 100.96     LegendNANA
04:00 Legend Double Dagger 7.6 5.6 87 26 23 24.1 100.99     LegendNANA
05:00 Legend Double Dagger 5.2 4.1 93 17 10 24.1 101.06     Clear
06:00 Legend Double Dagger 4.8 4.1 95 22 18 24.1 101.09     LegendNANA
07:00 Legend Double Dagger 4.6 3.8 94 22 17 24.1 101.08     LegendNANA
08:00 Legend Double Dagger 6.3 5.1 92 19 8 24.1 101.09     Mainly Clear
09:00 Legend Double Dagger 9.4 6.1 80 23 9 24.1 101.10     LegendNANA
10:00 Legend Double Dagger 10.3 6.9 79 34 6 24.1 101.08     LegendNANA
11:00 Legend Double Dagger 10.9 7.0 77 36 5 24.1 101.08     Mostly Cloudy
12:00 Legend Double Dagger 11.2 7.3 77 1 8 24.1 101.07     LegendNANA
13:00 Legend Double Dagger 11.6 6.9 72 5 10 24.1 101.08     LegendNANA
14:00 Legend Double Dagger 11.3 6.9 74 8 14 24.1 101.06     Mostly Cloudy
15:00 Legend Double Dagger 12.0 7.0 71 8 22 24.1 101.03     LegendNANA
16:00 Legend Double Dagger 10.8 7.2 78 9 19 24.1 101.01     LegendNANA
17:00 Legend Double Dagger 10.4 6.9 79 8 17 24.1 101.00     Mostly Cloudy
18:00 Legend Double Dagger 9.0 6.9 87 8 20 24.1 101.00     LegendNANA
19:00 Legend Double Dagger 8.4 6.8 89 10 18 24.1 100.99     LegendNANA
20:00 Legend Double Dagger 8.1 6.8 91 3 5 24.1 100.99     Mostly Cloudy
21:00 Legend Double Dagger 7.9 6.8 92 5 8 24.1 100.97     LegendNANA
22:00 Legend Double Dagger 8.0 6.9 93 10 17 24.1 100.93     LegendNANA
23:00 Legend Double Dagger 7.3 6.7 96 36 2 24.1 100.88     Mostly Cloudy

Notes on Data Quality.

Legend

  • E = Estimated
  • M = Missing
  • NA = Not Available
  • ‡ = Partner data that is not subject to review by the National Climate Archives
Date modified: